This is the latest recevied weather packets stored in our database for station/object LINCON. If no packets are shown the sender has not sent any weather packets the latest 10 day(s).
| Time | Temp. | Humidity | Pressure | Rain* | Wind** | Luminosity | Snow |
|---|---|---|---|---|---|---|---|
| 1777759509 | 17.78° C | 71% | 1010.3 hPa | 0 mm | - | - | - |
| 1777759208 | 17.22° C | 73% | 1010.3 hPa | 0 mm | - | - | - |
| 1777758908 | 17.22° C | 74% | 1010.3 hPa | 0 mm | - | - | - |
| 1777758607 | 16.67° C | 75% | 1010.2 hPa | 0 mm | - | - | - |
| 1777758308 | 16.67° C | 75% | 1010.2 hPa | 0 mm | - | - | - |
| 1777758008 | 16.11° C | 76% | 1010.3 hPa | 0 mm | - | - | - |
| 1777757708 | 16.11° C | 75% | 1010.3 hPa | 0 mm | - | - | - |
| 1777757408 | 16.11° C | 75% | 1010.3 hPa | 0 mm | - | - | - |
| 1777757107 | 15.56° C | 74% | 1010.3 hPa | 0 mm | - | - | - |
| 1777756807 | 15.56° C | 73% | 1010.4 hPa | 0 mm | - | - | - |
| 1777756508 | 16.11° C | 72% | 1010.5 hPa | 0 mm | - | - | - |
| 1777756207 | 16.11° C | 71% | 1010.6 hPa | 0 mm | - | - | - |
| 1777755908 | 16.67° C | 70% | 1010.7 hPa | 0 mm | - | - | - |
| 1777755607 | 17.22° C | 70% | 1010.6 hPa | 0 mm | - | - | - |
| 1777755307 | 17.22° C | 72% | 1010.7 hPa | 0 mm | - | - | - |
| 1777755008 | 16.67° C | 71% | 1010.7 hPa | 0 mm | - | - | - |
| 1777754707 | 16.67° C | 70% | 1010.9 hPa | 0 mm | - | - | - |
| 1777754407 | 16.67° C | 69% | 1011.1 hPa | 0 mm | - | - | - |
| 1777754107 | 16.67° C | 69% | 1011.1 hPa | 0 mm | - | - | - |
| 1777753807 | 17.22° C | 68% | 1011.1 hPa | 0 mm | - | - | - |
| 1777753508 | 17.22° C | 69% | 1011 hPa | 0 mm | - | - | - |
| 1777753207 | 17.22° C | 68% | 1011.3 hPa | 0 mm | - | - | - |
| 1777752907 | 17.22° C | 67% | 1011.3 hPa | 0 mm | - | - | - |
| 1777752607 | 17.22° C | 66% | 1011.3 hPa | 0 mm | - | - | - |
| 1777752307 | 17.78° C | 66% | 1011.2 hPa | 0 mm | - | - | - |
* Rain latest hour (hover to see other rain measurements)
** Current wind speed in m/s (hover to see current wind gust speed)